This is the latest recevied weather packets stored in our database for station/object W2OBX. If no packets are shown the sender has not sent any weather packets the latest 10 day(s).
| Time | Temp. | Humidity | Pressure | Rain* | Wind** | Luminosity | Snow |
|---|---|---|---|---|---|---|---|
| 1777698257 | 13.33° C | 73% | 1015.5 hPa | 0 mm | - | 0 W/m² | - |
| 1777697955 | 13.33° C | 71% | 1015.5 hPa | 0 mm | - | 0 W/m² | - |
| 1777697652 | 13.33° C | 71% | 1015.4 hPa | 0 mm | - | 0 W/m² | - |
| 1777697349 | 13.33° C | 72% | 1015.3 hPa | 0 mm | - | 0 W/m² | - |
| 1777697044 | 13.33° C | 71% | 1015.2 hPa | 0 mm | - | 0 W/m² | - |
| 1777696741 | 13.33° C | 70% | 1015.2 hPa | 0 mm | - | 0 W/m² | - |
| 1777696439 | 13.33° C | 70% | 1015.2 hPa | 0 mm | - | 0 W/m² | - |
| 1777696138 | 13.33° C | 69% | 1015.2 hPa | 0 mm | - | 0 W/m² | - |
| 1777695836 | 13.33° C | 68% | 1015.2 hPa | 0 mm | - | 0 W/m² | - |
| 1777695533 | 13.33° C | 69% | 1015 hPa | 0 mm | - | 0 W/m² | - |
| 1777695230 | 13.33° C | 69% | 1015.1 hPa | 0 mm | - | 0 W/m² | - |
| 1777694928 | 13.89° C | 68% | 1014.8 hPa | 0 mm | - | 0 W/m² | - |
| 1777694624 | 13.89° C | 69% | 1014.9 hPa | 0 mm | - | 0 W/m² | - |
| 1777694320 | 13.89° C | 66% | 1014.9 hPa | 0 mm | - | 0 W/m² | - |
| 1777694017 | 13.89° C | 65% | 1014.8 hPa | 0 mm | - | 0 W/m² | - |
| 1777693714 | 13.89° C | 65% | 1014.9 hPa | 0 mm | - | 0 W/m² | - |
| 1777693413 | 13.89° C | 64% | 1014.9 hPa | 0 mm | - | 0 W/m² | - |
| 1777693111 | 13.89° C | 66% | 1014.9 hPa | 0 mm | - | 0 W/m² | - |
| 1777692808 | 13.89° C | 67% | 1015 hPa | 0 mm | - | 0 W/m² | - |
| 1777692505 | 13.89° C | 63% | 1015 hPa | 0 mm | - | 0 W/m² | - |
| 1777692201 | 14.44° C | 65% | 1015.1 hPa | 0 mm | - | 0 W/m² | - |
| 1777691899 | 14.44° C | 63% | 1015.1 hPa | 0 mm | - | 0 W/m² | - |
| 1777691597 | 14.44° C | 63% | 1014.9 hPa | 0 mm | - | 0 W/m² | - |
| 1777691295 | 14.44° C | 63% | 1015 hPa | 0 mm | - | 0 W/m² | - |
| 1777690993 | 14.44° C | 63% | 1015 hPa | 0 mm | - | 0 W/m² | - |
* Rain latest hour (hover to see other rain measurements)
** Current wind speed in m/s (hover to see current wind gust speed)